EW4195 Weather Reports


Display with metric or nautical units.
time (UTC)temp
F
wind
direction
speed
MPH
gust
MPH
rain 1hr
in
rain 24hr
in
rain mn
in
humidity
%
barometer
mb
20260510081045 54 17 12.0 24.0 0.00 0.00 0.00 1 1015.9
20260510080016 55 68 10.0 20.0 0.00 0.00 0.00 1 1015.9
20260510073849 54 32 10.0 18.0 0.00 0.00 0.00 1 1016.1
20260510072817 54 84 9.0 16.0 0.00 0.00 0.00 1 1016.0
20260510070643 54 80 9.0 19.0 0.00 0.00 0.00 1 1016.2
20260510064550 55 90 8.0 18.0 0.00 0.00 0.00 1 1016.1
20260510063545 55 53 9.0 19.0 0.00 0.00 0.00 1 1016.0
20260510062533 55 40 11.0 21.0 0.00 0.00 0.00 1 1016.0
20260510061528 54 51 10.0 21.0 0.00 0.00 0.00 1 1016.1
20260510060524 54 32 9.0 20.0 0.00 0.00 0.00 1 1016.0
20260510055504 54 44 9.0 19.0 0.00 0.00 0.00 1 1016.0
20260510054439 53 69 9.0 19.0 0.00 0.00 0.00 1 1016.0
20260510053417 53 34 11.0 21.0 0.00 0.00 0.00 1 1016.1
20260510052351 53 5 10.0 21.0 0.00 0.00 0.00 1 1016.1
20260510051338 53 5 11.0 20.0 0.00 0.00 0.00 1 1016.2
20260510050319 53 57 11.0 19.0 0.00 0.00 0.00 1 1016.2
20260510045307 53 11 10.0 18.0 0.00 0.00 0.00 1 1016.1
20260510044236 53 25 11.0 18.0 0.00 0.00 0.00 1 1016.1
20260510043244 53 36 9.0 18.0 0.00 0.00 0.00 1 1016.0
20260510042223 53 36 9.0 18.0 0.00 0.00 0.00 1 1016.1
20260510040045 54 32 11.0 20.0 0.00 0.00 0.00 1 1016.0
20260510035110 54 37 10.0 18.0 0.00 0.00 0.00 1 1016.0
20260510034059 54 39 10.0 19.0 0.00 0.00 0.00 1 1016.0
20260510033110 54 38 10.0 19.0 0.00 0.00 0.00 1 1016.0
20260510032043 54 40 9.0 17.0 0.00 0.00 0.00 1 1016.1
20260510031046 54 15 9.0 17.0 0.00 0.00 0.00 1 1016.1
20260510024952 54 55 8.0 18.0 0.00 0.00 0.00 1 1016.0
20260510022831 54 57 7.0 17.0 0.00 0.00 0.00 1 1016.0
20260510021817 55 48 7.0 17.0 0.00 0.00 0.00 1 1016.1
20260510015731 55 40 6.0 15.0 0.00 0.00 0.00 1 1016.2
20260510014739 55 68 8.0 15.0 0.00 0.00 0.00 1 1016.2
20260510013802 55 45 6.0 14.0 0.00 0.00 0.00 1 1016.3
20260510012821 55 63 5.0 13.0 0.00 0.00 0.00 1 1016.4
20260510005459 55 71 5.0 13.0 0.00 0.00 0.00 1 1016.3
20260510004436 55 62 6.0 14.0 0.00 0.00 0.00 1 1016.2
20260510003434 55 59 6.0 14.0 0.00 0.00 0.00 1 1016.3
20260510002445 55 55 5.0 11.0 0.00 0.00 0.00 1 1016.4
20260510001456 55 37 5.0 11.0 0.00 0.00 0.00 1 1016.3
20260510000444 55 71 5.0 13.0 0.00 0.00 0.00 1 1016.4
20260509235501 55 75 5.0 13.0 0.00 0.00 0.00 1 1016.6
20260509234510 55 79 5.0 12.0 0.00 0.00 0.00 1 1016.5
20260509233523 55 84 4.0 12.0 0.00 0.00 0.00 1 1016.6
20260509232540 55 61 4.0 11.0 0.00 0.00 0.00 1 1016.7
20260509231518 55 73 5.0 11.0 0.00 0.00 0.00 1 1016.8
20260509230502 55 65 4.0 11.0 0.00 0.00 0.00 1 1016.8
20260509224355 55 70 3.0 9.0 0.00 0.00 0.00 1 1016.7
20260509223353 55 74 4.0 11.0 0.00 0.00 0.00 1 1016.7
20260509222333 55 51 4.0 12.0 0.00 0.00 0.00 1 1016.6
20260509221321 55 80 4.0 12.0 0.00 0.00 0.00 1 1016.8
20260509220323 55 71 4.0 10.0 0.00 0.00 0.00 1 1016.7
20260509215248 55 59 3.0 10.0 0.00 0.00 0.00 1 1016.7
20260509214258 55 63 4.0 11.0 0.00 0.00 0.00 1 1016.7
20260509213236 55 53 4.0 11.0 0.00 0.00 0.00 1 1016.8
20260509211111 55 64 4.0 9.0 0.00 0.00 0.00 1 1016.7
20260509210037 55 70 4.0 10.0 0.00 0.00 0.00 1 1016.6
20260509205006 55 61 4.0 11.0 0.00 0.00 0.00 1 1016.4
20260509203935 55 62 4.0 11.0 0.00 0.00 0.00 1 1016.5
20260509202946 56 53 4.0 11.0 0.00 0.00 0.00 1 1016.6
20260509200819 56 57 3.0 11.0 0.00 0.00 0.00 1 1016.4
20260509195839 56 71 4.0 11.0 0.00 0.00 0.00 1 1016.3
20260509194858 57 56 5.0 10.0 0.00 0.00 0.00 1 1016.1
20260509193920 57 72 4.0 10.0 0.00 0.00 0.00 1 1016.1
20260509192914 57 58 4.0 9.0 0.00 0.00 0.00 3 1016.1
20260509191906 58 99 4.0 10.0 0.00 0.00 0.00 5 1016.1
20260509190929 58 33 5.0 11.0 0.00 0.00 0.00 12 1016.0
20260509185858 59 46 4.0 11.0 0.00 0.00 0.00 29 1015.9
20260509184829 59 73 4.0 10.0 0.00 0.00 0.00 42 1016.0
20260509183819 59 51 5.0 11.0 0.00 0.00 0.00 47 1016.0
20260509182825 59 79 5.0 12.0 0.00 0.00 0.00 49 1015.9
20260509181759 59 69 6.0 12.0 0.00 0.00 0.00 50 1015.8
20260509180735 60 49 6.0 13.0 0.00 0.00 0.00 50 1015.8
20260509174537 60 77 6.0 14.0 0.00 0.00 0.00 49 1015.7
20260509173523 60 40 6.0 14.0 0.00 0.00 0.00 49 1015.7
20260509172524 60 92 7.0 16.0 0.00 0.00 0.00 50 1015.7
20260509170402 61 47 7.0 17.0 0.00 0.00 0.00 49 1015.9
20260509165331 61 60 6.0 15.0 0.00 0.00 0.00 47 1016.0
20260509164352 61 73 7.0 15.0 0.00 0.00 0.00 46 1016.0
20260509163402 61 101 8.0 14.0 0.00 0.00 0.00 47 1016.1
20260509162413 62 71 7.0 14.0 0.00 0.00 0.00 48 1016.0
20260509161408 63 44 7.0 15.0 0.00 0.00 0.00 49 1016.1
20260509160345 63 75 6.0 15.0 0.00 0.00 0.00 50 1016.1
20260509155333 63 107 7.0 15.0 0.00 0.00 0.00 50 1016.2
20260509154319 63 83 7.0 13.0 0.00 0.00 0.00 48 1016.4
20260509153335 63 99 7.0 15.0 0.00 0.00 0.00 48 1016.5
20260509152315 63 77 6.0 15.0 0.00 0.00 0.00 47 1016.6
20260509151322 63 85 6.0 16.0 0.00 0.00 0.00 47 1016.4
20260509150320 63 96 8.0 16.0 0.00 0.00 0.00 44 1016.3
20260509145315 63 78 7.0 15.0 0.00 0.00 0.00 44 1016.4
20260509144244 63 101 7.0 16.0 0.00 0.00 0.00 43 1016.3
20260509143209 63 80 8.0 16.0 0.00 0.00 0.00 42 1016.2
20260509142145 63 27 7.0 16.0 0.00 0.00 0.00 39 1016.1
20260509140039 63 106 8.0 17.0 0.00 0.00 0.00 35 1016.1
20260509132801 65 56 7.0 16.0 0.00 0.00 0.00 45 1016.3
20260509131801 65 55 7.0 15.0 0.00 0.00 0.00 44 1016.4
20260509130739 65 90 6.0 13.0 0.00 0.00 0.00 46 1016.4
20260509125737 65 83 7.0 15.0 0.00 0.00 0.00 44 1016.6
20260509124728 64 114 7.0 15.0 0.00 0.00 0.00 44 1016.6
20260509123710 64 38 9.0 15.0 0.00 0.00 0.00 45 1016.7
20260509122718 65 50 7.0 16.0 0.00 0.00 0.00 43 1016.7
20260509121658 65 84 7.0 16.0 0.00 0.00 0.00 43 1016.7
20260509120640 65 88 7.0 14.0 0.00 0.00 0.00 44 1016.7
20260509115652 65 49 7.0 14.0 0.00 0.00 0.00 44 1016.7
20260509114617 65 28 7.0 13.0 0.00 0.00 0.00 43 1016.8
20260509113631 65 80 7.0 16.0 0.00 0.00 0.00 41 1016.9
20260509112605 66 96 7.0 16.0 0.00 0.00 0.00 44 1017.1
20260509111537 65 61 6.0 13.0 0.00 0.00 0.00 43 1017.2
20260509110552 65 59 7.0 13.0 0.00 0.00 0.00 41 1017.2
20260509105558 65 75 6.0 13.0 0.00 0.00 0.00 40 1017.2
20260509104605 65 61 7.0 16.0 0.00 0.00 0.00 41 1017.3
20260509103553 65 52 8.0 16.0 0.00 0.00 0.00 41 1017.3
20260509102530 66 80 5.0 11.0 0.00 0.00 0.00 36 1017.4
20260509101541 65 84 6.0 12.0 0.00 0.00 0.00 35 1017.5
20260509100541 65 58 6.0 12.0 0.00 0.00 0.00 37 1017.3
20260509094353 64 80 6.0 13.0 0.00 0.00 0.00 31 1017.3
20260509093318 65 61 6.0 13.0 0.00 0.00 0.00 26 1017.3
20260509092335 65 59 5.0 11.0 0.00 0.00 0.00 24 1017.3
20260509091329 65 35 4.0 11.0 0.00 0.00 0.00 17 1017.3
20260509090339 64 80 5.0 11.0 0.00 0.00 0.00 8 1017.3
20260509085325 63 49 5.0 10.0 0.00 0.00 0.00 1 1017.3
20260509083233 63 79 4.0 11.0 0.00 0.00 0.00 1 1017.4
20260509082233 63 42 4.0 11.0 0.00 0.00 0.00 1 1017.3